This demonstration page uses our WeatherBlox Daily Observations layout. Learn more.

Left ArrowRight Arrow

Hourly Observations for July 13, 2015

Temp ( °F °C ) Dew Point ( °F °C ) Humidity (%) Winds ( mph kmh ) Pressure ( in mb ) Visibility ( mi km ) Precip ( " mm )
12:53 am 00:53 Clear 73 22.8 54 12.2 51 51 NW 3 6 29.94 1014 10 16 0.00 0.00
1:53 am 01:53 Clear 71 21.7 54 12.2 55 55 Calm 29.94 1014 10 16 0.00 0.00
2:53 am 02:53 Clear 70 21.1 55 12.8 59 59 NW 5 7 29.95 1014 10 16 0.00 0.00
3:53 am 03:53 Clear 70 21.1 55 12.8 59 59 Calm 29.96 1014 10 16 0.00 0.00
4:53 am 04:53 Mostly Cloudy 69 20.6 54 12.2 59 59 Calm 29.96 1015 10 16 0.00 0.00
5:53 am 05:53 Mostly Cloudy 67 19.4 55 12.8 66 66 Calm 29.97 1015 10 16 0.00 0.00
6:53 am 06:53 Sunny 69 20.6 55 12.8 61 61 Calm 29.97 1015 10 16 0.00 0.00
7:53 am 07:53 Sunny 73 22.8 55 12.8 53 53 Calm 29.98 1015 10 16 0.00 0.00
8:53 am 08:53 Sunny 77 25 55 12.8 47 47 N 6 9 29.97 1015 10 16 0.00 0.00
9:53 am 09:53 Sunny 81 27.2 54 12.2 39 39 VRB 6 9 29.96 1015 10 16 0.00 0.00
10:53 am 10:53 Sunny 85 29.4 53 11.7 33 33 NW 5 7 29.93 1014 10 16 0.00 0.00
11:53 am 11:53 Sunny 87 30.6 51 10.6 29 29 undefined N/A 29.92 1013 10 16 0.00 0.00
12:53 pm 12:53 Sunny 90 32.2 48 8.9 24 24 VRB 5 7 29.90 1013 10 16 0.00 0.00
1:53 pm 13:53 Sunny 91 32.8 49 9.4 24 24 VRB 5 7 29.88 1012 10 16 0.00 0.00
2:53 pm 14:53 Sunny 92 33.3 45 7.2 20 20 undefined N/A 29.86 1011 10 16 0.00 0.00
3:53 pm 15:53 Sunny 93 33.9 44 6.7 18 18 S 6 9 29.84 1010 10 16 0.00 0.00
4:53 pm 16:53 Sunny 94 34.4 45 7.2 18 18 S 7 11 29.82 1010 10 16 0.00 0.00
5:53 pm 17:53 Sunny 94 34.4 45 7.2 18 18 undefined N/A 29.80 1009 10 16 0.00 0.00
6:53 pm 18:53 Sunny 93 33.9 47 8.3 21 21 SSE 10 17 29.79 1009 10 16 0.00 0.00
7:53 pm 19:53 Sunny 91 32.8 43 6.1 19 19 SSE 10 17 29.78 1009 10 16 0.00 0.00
8:53 pm 20:53 Clear 86 30 46 7.8 25 25 S 7 11 29.80 1009 10 16 0.00 0.00
9:53 pm 21:53 Clear 84 28.9 47 8.3 27 27 S 6 9 29.81 1009 10 16 0.00 0.00
10:53 pm 22:53 Clear 79 26.1 48 8.9 34 34 NE 6 9 29.82 1010 10 16 0.00 0.00
11:53 pm 23:53 Clear 78 25.6 50 10 37 37 N 5 7 29.83 1010 10 16 0.00 0.00

Powered by AerisWeather